Location: Cañada de la Miga
(34.7595°N, 106.2317°W)
Time: 08:17:00
(UTC+00:00)

Courier 1B Rocket - All Passes

Search period start: 03 December 2021 00:00
Search period end: 13 December 2021 00:00
Orbit: 920 x 1202 km, 28.2° (Epoch: 02 December)

Date Brightness Start Highest point End Pass type
(mag) Time Alt. Az. Time Alt. Az. Time Alt. Az.
03 Dec - 03:40:02 10° S 03:42:31 12° SSE 03:44:56 10° SE visible
03 Dec - 05:29:42 10° SW 05:35:13 30° SSE 05:40:35 10° ESE night (unlit)
03 Dec - 07:22:09 10° WSW 07:28:07 46° S 07:34:03 10° ESE night (unlit)
03 Dec - 09:15:18 10° WSW 09:21:05 41° S 09:27:00 10° ESE visible
03 Dec - 11:09:14 10° WSW 11:13:54 22° SSW 11:18:44 10° SSE visible
04 Dec - 04:29:14 10° SSW 04:34:22 24° SSE 04:39:20 10° ESE night (unlit)
04 Dec - 06:21:15 10° WSW 06:27:14 43° S 06:33:04 10° ESE night (unlit)
04 Dec - 08:14:17 10° WSW 08:20:13 45° S 08:26:09 10° ESE night (unlit)
04 Dec - 10:07:53 10° WSW 10:13:05 28° SSW 10:18:24 10° SE visible
04 Dec - 12:05:25 10° SSW 12:05:45 10° SSW 12:06:05 10° SSW visible
05 Dec - 03:29:03 10° SSW 03:33:32 19° SSE 03:37:50 10° ESE visible
05 Dec - 05:20:24 10° SW 05:26:21 38° SSE 05:32:04 10° ESE night (unlit)
05 Dec - 07:13:17 10° WSW 07:19:20 47° S 07:25:16 10° ESE night (unlit)
05 Dec - 09:06:42 10° WSW 09:12:15 34° SSW 09:17:52 10° SE night (unlit)
05 Dec - 11:01:33 10° WSW 11:04:56 15° SSW 11:08:24 10° S visible
06 Dec - 02:29:29 10° S 02:32:40 14° SSE 02:35:45 10° SE visible
06 Dec - 04:19:39 10° SW 04:25:27 32° SSE 04:31:01 10° ESE visible
06 Dec - 06:12:17 10° WSW 06:18:26 47° S 06:24:22 10° ESE night (unlit)
06 Dec - 08:05:35 10° WSW 08:11:24 40° S 08:17:11 10° ESE night (unlit)
06 Dec - 09:59:41 10° WSW 10:04:09 21° SSW 10:08:41 10° SSE visible
07 Dec - 03:19:03 10° SSW 03:24:34 26° SSE 03:29:49 10° ESE visible
07 Dec - 05:11:17 10° WSW 05:17:31 44° S 05:23:27 10° ESE night (unlit)
07 Dec - 07:04:29 10° WSW 07:10:32 45° S 07:16:25 10° ESE night (unlit)
07 Dec - 08:58:14 10° WSW 09:03:21 27° SSW 09:08:29 10° SE night (unlit)
08 Dec - 02:18:43 10° SSW 02:23:40 20° SSE 02:28:24 10° ESE visible
08 Dec - 04:10:18 10° SW 04:16:35 39° SSE 04:22:30 10° E visible
08 Dec - 06:03:22 10° WSW 06:09:38 48° S 06:15:37 10° ESE night (unlit)
08 Dec - 07:56:57 10° WSW 08:02:33 34° SSW 08:08:04 10° SE night (unlit)
08 Dec - 09:52:03 10° WSW 09:55:11 14° SSW 09:58:20 10° S night (unlit)
09 Dec - 01:18:55 10° S 01:22:44 15° SSE 01:26:27 10° ESE visible
09 Dec - 03:09:26 10° SW 03:15:38 34° SSE 03:21:28 10° ESE visible
09 Dec - 05:02:15 10° WSW 05:08:41 48° S 05:14:46 10° ESE night (unlit)
09 Dec - 06:55:43 10° W 07:01:42 40° SSW 07:07:29 10° SE night (unlit)
09 Dec - 08:50:01 10° WSW 08:54:25 20° SSW 08:58:49 10° SSE night (unlit)
10 Dec - 00:21:03 10° SSE 00:21:48 10° SSE 00:22:34 10° SE visible
10 Dec - 02:08:44 10° SW 02:14:41 28° SSE 02:20:17 10° ESE visible
10 Dec - 04:01:08 10° WSW 04:07:43 46° S 04:13:53 10° ESE visible
10 Dec - 05:54:30 10° WSW 06:00:48 46° S 06:06:48 10° ESE night (unlit)
10 Dec - 07:48:25 10° WSW 07:53:39 27° SSW 07:58:45 10° SE night (unlit)
11 Dec - 01:08:18 10° SSW 01:13:42 22° SSE 01:18:52 10° ESE visible
11 Dec - 03:00:05 10° SW 03:06:43 41° SSE 03:12:56 10° E visible
11 Dec - 04:53:17 10° WSW 04:59:52 49° S 05:06:02 10° ESE visible
11 Dec - 06:47:02 10° W 06:52:50 34° SSW 06:58:24 10° SE night (unlit)
11 Dec - 08:42:22 10° WSW 08:45:26 14° SSW 08:48:28 10° S night (unlit)
12 Dec - 00:08:20 10° S 00:12:44 16° SSE 00:16:59 10° ESE daylight
12 Dec - 01:59:07 10° SW 02:05:42 36° SSE 02:11:53 10° E visible
12 Dec - 03:52:04 10° WSW 03:58:52 49° S 04:05:12 10° ESE visible
12 Dec - 05:45:41 10° W 05:51:58 41° SSW 05:57:53 10° SE night (unlit)
12 Dec - 07:40:09 10° WSW 07:44:41 20° SSW 07:49:06 10° SSE night (unlit)
12 Dec - 23:09:35 10° SSE 23:11:44 11° SSE 23:13:53 10° SE daylight
